Weather History for Rome, OR

Change the Weather History Date:

Friday, March 14, 2014

  Actual Average Record
Temperature  
Mean Temperature 45 °F 40 °F  
Max Temperature 61 °F 53 °F 75 °F (1992)
Min Temperature 29 °F 26 °F 13 °F (1944)
Degree Days  
Heating Degree Days 20 25  
Month to date heating degree days 284 375  
Since 1 July heating degree days 4706 5109  
Cooling Degree Days 0 0  
Month to date cooling degree days 0 0  
Year to date cooling degree days 0 0  
Moisture  
Dew Point 19 °F    
Average Humidity 36    
Maximum Humidity 58    
Minimum Humidity 14    
Precipitation  
Precipitation 0.00 in 0.03 in 0.22 in (1945)
Month to date precipitation 0.17 0.39  
Year to date precipitation 0.92 1.80  
Sea Level Pressure  
Sea Level Pressure 30.13 in    
Wind  
Wind Speed 10 mph (SW)    
Max Wind Speed 29 mph    
Max Gust Speed 35 mph    
T = Trace of Precipitation, MM = Missing Value Source: NWS Daily Summary

Daily Weather History Graph

Daily Weather History Graph

Search for Another Location

Airport:

Trip Planner

Search our weather history database for the weather conditions in past years. The results will help you decide how hot, cold, wet, or windy it might be!

Date:

Astronomy

Mar. 14, 2014 Rise Set
Actual Time 7:04 AM PDT 6:56 PM PDT
Civil Twilight 6:36 AM PDT 7:24 PM PDT
Nautical Twilight 6:04 AM PDT 7:57 PM PDT
Astronomical Twilight 5:31 AM PDT 8:31 PM PDT
Moon 5:22 PM PDT (3/14) 5:49 AM PDT (3/14)
Length of Visible Light 12h 48m
Length of Day
11h 51m
Waxing Gibbous, 96% of the Moon is Illuminated
Mar 14
Waxing Gibbous
Mar 16
Full
Mar 23
Last Quarter
Mar 30
New
Apr 7
First Quarter

Hourly Weather History & Observations

Time (PDT) Temp. Windchill Dew Point Humidity Pressure Visibility Wind Dir Wind Speed Gust Speed Precip Events Conditions
12:52 AM 35.1 °F 27.4 °F 19.9 °F 54% 30.02 in - SSW 10.4 mph - N/A   Unknown
1:52 AM 30.9 °F 23.5 °F 18.0 °F 59% 30.03 in - SSW 8.1 mph - N/A   Unknown
2:52 AM 34.0 °F 26.0 °F 19.9 °F 56% 30.01 in - SSE 10.4 mph - N/A   Unknown
3:52 AM 32.0 °F - 18.0 °F 56% 30.01 in - Calm Calm - N/A   Unknown
4:52 AM 33.1 °F 26.1 °F 19.0 °F 56% 30.01 in - SSE 8.1 mph - N/A   Unknown
5:52 AM 35.1 °F 32.2 °F 19.9 °F 54% 30.03 in - SSW 3.5 mph - N/A   Unknown
6:52 AM 36.0 °F 29.0 °F 21.0 °F 55% 30.06 in - SSE 9.2 mph - N/A   Unknown
7:52 AM 37.9 °F 33.5 °F 23.0 °F 55% 30.08 in - SSE 5.8 mph - N/A   Unknown
8:52 AM 45.0 °F 43.5 °F 21.9 °F 40% 30.09 in - West 3.5 mph - N/A   Unknown
9:52 AM 48.9 °F - 23.0 °F 36% 30.12 in - West 4.6 mph - N/A   Unknown
10:52 AM 52.0 °F - 23.0 °F 32% 30.12 in - SW 9.2 mph - N/A   Unknown
11:52 AM 52.0 °F - 27.0 °F 38% 30.15 in - SW 10.4 mph - N/A   Unknown
12:52 PM 54.0 °F - 28.9 °F 38% 30.15 in - West 6.9 mph - N/A   Unknown
1:52 PM 55.0 °F - 30.9 °F 40% 30.16 in - SW 17.3 mph - N/A   Unknown
1:57 PM 55.9 °F - 30.9 °F 39% 30.14 in - SW 9.2 mph - N/A   Unknown
2:52 PM 57.9 °F - 26.1 °F 30% 30.15 in - West 24.2 mph 29.9 mph N/A   Unknown
3:52 PM 59.0 °F - 23.0 °F 25% 30.14 in - West 16.1 mph 31.1 mph N/A   Unknown
4:52 PM 60.1 °F - 18.0 °F 20% 30.15 in - West 21.9 mph 29.9 mph N/A   Unknown
5:52 PM 59.0 °F - 10.0 °F 14% 30.15 in - WNW 21.9 mph 34.5 mph N/A   Unknown
6:52 PM 53.1 °F - 12.9 °F 20% 30.18 in - WNW 16.1 mph 24.2 mph N/A   Unknown
7:52 PM 50.0 °F - 12.0 °F 22% 30.22 in - WNW 16.1 mph 25.3 mph N/A   Unknown
8:52 PM 46.0 °F 41.0 °F 7.0 °F 20% 30.25 in - West 10.4 mph - N/A   Unknown
9:52 PM 39.0 °F 34.8 °F 7.0 °F 27% 30.28 in - SSW 5.8 mph - N/A   Unknown
10:52 PM 37.0 °F 33.3 °F 10.9 °F 34% 30.31 in - SSW 4.6 mph - N/A   Unknown
11:52 PM 35.1 °F 27.9 °F 12.9 °F 40% 30.32 in - ESE 9.2 mph - N/A   Unknown